Location: Jaite
(41.2884°N, 81.5737°W)
Time: 18:39:11
(UTC+00:00)

Ariane Rocket - Pass Details

Date: 18 January 2020
Orbit: 761 x 770 km, 98.7° (Epoch: 27 February)

Event Time Altitude Azimuth Distance (km) Brightness Sun altitude
Rises 00:46:55 0° 168° (SSE) 3,208 6.2 -26.5°
Enters shadow 00:47:57 - 169° (S) 2,796 5.8 -26.7°
Exits shadow 00:53:43 69° 202° (SSW) 819 3.1 -27.8°
Maximum altitude 00:54:15 77° 256° (WSW) 786 3.0 -27.9°
Drops below altitude 10° 00:59:21 10° 343° (NNW) 2,310 5.6 -28.8°
Sets 01:01:40 0° 345° (NNW) 3,242 6.4 -29.2°
